Location: Paddlesworth
(51.1000°N, 1.1333°E)
Time: 09:13:55
(UTC+00:00)

Cosmos 1271 Rocket - Pass Details

Date: 11 May 2021
Orbit: 497 x 545 km, 81.2° (Epoch: 15 June)

Event Time Altitude Azimuth Distance (km) Brightness Sun altitude
Exits shadow 21:54:39 18° 203° (SSW) 1,380 4.5 -16.2°
Maximum altitude 21:57:32 68° 284° (WNW) 594 3.1 -16.4°
Drops below altitude 10° 22:01:34 10° 8° (N) 1,827 6.3 -16.7°
Sets 22:03:45 0° 11° (N) 2,723 7.2 -16.8°
